Tracking 19709 objects as of 17-Jun-2019
HD Live streaming from Space Station
objects crossing your sky now

EUTE 8 WEST A (AB 2)

Track EUTE 8 WEST A (AB 2) now!
EUTE 8 WEST A (AB 2) is classified as:


NORAD ID: 26927
Int'l Code: 2001-042A
Perigee: 35,763.0 km
Apogee: 35,824.5 km
Inclination: 0.2 °
Period: 1,436.1 minutes
Semi major axis: 42164 km
RCS: 14.2528 m2 (large)
Launch date: September 25, 2001
Source: European Telecommunications Satellite Organization (EUTE)
Launch site: FRENCH GUIANA (FRGUI)

European and American coverage.
aabbcc
Your satellite tracking list
Your tracking list is empty




NASA's NSSDC Master Catalog

Two Line Element Set (TLE):
1 26927U 01042A   19168.35320882 -.00000108  00000-0  00000+0 0  9998
2 26927   0.2325  92.7397 0007288 348.3514 298.8765  1.00271733 64896
Source of the keplerian elements: AFSPC